Weather observations for the past three days for
Pinehurst/Southern Pines, Moore County Airport
Imperial (Metric)
Date Time (edt) Wind (mph) Vis. (mi.) Weather Sky Cond. Temperature (ºF) Relative Humidity Wind Chill (°F) Heat Index (°F) Pressure Precipitation (in)
Air Dwpt 6 hour altimeter (in) sea level (mb) 1 hr 3 hr 6 hr
Max. Min.
25 10:56 SW 9 10.00 Overcast BKN010 OVC014 77 75 94% 78 30.19 1022.3
25 09:56 S 8 10.00 Light Rain BKN008 BKN030 OVC035 75.9 75 97% 75 30.21 1022.8
25 08:56 SW 7 10.00 Overcast OVC004 75 75 100% 72 30.21 1022.9
25 07:56 SE 3 9.00 Light Rain SCT004 BKN032 OVC090 75 75 77 73.9 100% 72 30.19 1022.5
25 06:56 Calm 10.00 Overcast SCT050 OVC070 73.9 73.9 100% 30.19 1022.4
25 05:56 Calm 10.00 Light Rain BKN019 73.9 73.9 100% 30.18 1022.2
25 04:56 S 5 10.00 Overcast OVC017 75 73.9 96% 73 30.19 1022.4
25 03:56 S 3 10.00 Overcast OVC021 75 75 100% 72 30.19 1022.4
25 02:56 SW 3 10.00 Light Rain FEW020 BKN043 OVC065 75.9 73.9 94% 75 30.21 1022.8
25 01:56 Calm 10.00 Mostly Cloudy BKN034 BKN080 BKN100 77 73 84 77 88% 78 30.21 1023.1
25 00:56 SW 7 10.00 Fair CLR 77 73 88% 78 30.21 1023.1
24 23:56 SW 9 10.00 Mostly Cloudy BKN110 77 73 88% 78 30.2 1022.8
24 22:56 S 8 10.00 Overcast OVC110 78.1 73 85% 81 30.2 1022.8
24 21:56 SW 10 10.00 Partly Cloudy SCT100 SCT120 79 73.9 85% 83 30.2 1022.7
24 20:56 SW 9 10.00 Fair CLR 81 75 82% 87 30.19 1022.2
24 19:56 SW 9 10.00 Mostly Cloudy SCT045 BKN050 BKN110 84 73.9 91 84 72% 91 30.17 1021.4
24 18:56 S 10 10.00 Mostly Cloudy SCT043 BKN060 88 75.9 68% 99 30.15 1020.8
24 17:56 SW 7 10.00 A Few Clouds FEW060 90 73 58% 98 30.14 1020.5
24 16:56 SW 7 10.00 A Few Clouds FEW043 90 73 58% 98 30.15 1021.0
24 15:56 SW 9 10.00 Partly Cloudy SCT042 91 75 59% 102 0 0.0
24 14:56 SW 9 G 17 10.00 Fair CLR 90 73 58% 98 30.17 1021.7
24 13:56 SW 6 10.00 A Few Clouds FEW029 88 75 88 73 66% 98 30.18 1022.2 0.02
24 12:56 SW 6 10.00 Fair CLR 84.9 75 72% 93 30.21 1023.1
24 11:56 SW 10 10.00 A Few Clouds FEW022 84 75 74% 92 30.21 1023.0 0.01
24 10:56 SW 12 G 16 10.00 A Few Clouds FEW011 81 73.9 79% 86 30.2 1022.7 0.01
24 09:56 SW 8 10.00 Partly Cloudy SCT009 77 73.9 90% 78 30.2 1022.5
24 08:56 SW 9 10.00 Overcast OVC005 73.9 73 97% 30.19 1022.5 0.01
24 07:56 S 7 10.00 Overcast OVC005 73 72 75 73 96% 30.19 1022.3 0.05
24 06:56 S 6 10.00 A Few Clouds FEW004 73 73 100% 30.18 1021.8 0.01
24 05:56 SW 7 10.00 Overcast OVC004 73 73 100% 30.16 1021.4 0.01
24 04:56 S 6 10.00 Light Rain BKN006 BKN025 OVC039 73 73 100% 30.16 1021.2 0.01 0.03
24 03:56 S 10 10.00 Thunderstorm in Vicinity Rain OVC006 73.9 73.9 100% 30.19 1022.1 0.01
24 02:56 S 10 10.00 Light Rain BKN004 BKN047 OVC110 75 75 100% 72 30.16 1021.2 0.01
24 01:56 S 7 10.00 Fair CLR 75 73.9 81 75 96% 73 30.15 1021.1 0.03 0.2
24 00:56 S 6 10.00 A Few Clouds FEW030 75.9 75.9 100% 75 30.16 1021.3 0.06
23 23:56 S 3 10.00 Thunderstorm in Vicinity FEW017 SCT029 BKN034 77 75.9 96% 78 30.17 1021.5 0.08
23 22:56 SE 9 6.00 Thunderstorm Light Rain Fog/Mist FEW014 BKN047 BKN070 75.9 73.9 94% 75 30.13 1020.2 0.03 0.03
23 21:56 S 5 10.00 Fair CLR 79 77 94% 83 30.13 1020.3
23 20:56 S 6 10.00 Fair CLR 79 77 94% 83 30.11 1019.8
23 19:56 Calm 10.00 Fair CLR 80.1 79 91 77 97% 87 30.09 1018.8 0.35
23 18:56 Calm 10.00 A Few Clouds FEW045 84 77 80% 94 30.09 1019.0 0.01
23 17:56 Calm 10.00 Thunderstorm in Vicinity CLR 78.1 78.1 100% 81 30.07 1018.2 0.14
23 16:56 SW 7 10.00 Thunderstorm in Vicinity Light Rain FEW018 SCT038 BKN049 82 77 85% 90 30.07 1018.2 0.06 0.2
23 15:56 S 6 10.00 Light Rain FEW020 BKN070 BKN090 82.9 78.1 85% 93 30.07 1018.3 0.02
23 14:56 S 9 G 26 3.00 Heavy Rain FEW018 SCT050 BKN110 82.9 73.9 74% 89 30.09 1018.8 0.12
23 13:56 SW 13 10.00 Mostly Cloudy SCT045 BKN060 90 73.9 91.9 75.9 59% 99 30.1 1019.2
23 12:56 S 9 10.00 Partly Cloudy SCT040 89.1 73.9 61% 98 30.12 1019.9
23 11:56 SW 8 10.00 Mostly Cloudy FEW033 BKN044 88 73.9 63% 97 30.12 1020.1
23 10:56 SW 10 10.00 A Few Clouds FEW027 87.1 73.9 65% 95 30.12 1019.9
23 09:56 S 7 10.00 Fair CLR 84 75.9 77% 93 30.12 1020.1
23 08:56 SW 6 10.00 Fair CLR 80.1 75 85% 85 30.12 1020.0
23 07:56 SW 7 10.00 Fair CLR 75.9 73.9 75.9 73.9 94% 75 30.12 1020.0
23 06:56 SW 5 10.00 Fair CLR 75 73.9 96% 73 30.1 1019.3
23 05:56 SW 6 10.00 Fair CLR 73.9 73 97% 30.1 1019.2
23 04:56 S 5 10.00 A Few Clouds FEW010 73.9 73 97% 30.08 1018.7
23 03:56 S 3 10.00 Partly Cloudy SCT043 73.9 72 94% 30.07 1018.3
23 02:56 S 5 10.00 Fair CLR 73.9 72 94% 30.07 1018.2
23 01:56 S 6 10.00 Fair CLR 75 73 82 75 94% 73 30.08 1018.6
23 00:56 SW 8 10.00 Fair CLR 75 73 94% 73 30.07 1018.3
22 23:56 S 5 10.00 Fair CLR 75.9 73 91% 76 30.07 1018.4
22 22:56 S 8 10.00 Fair CLR 77 73.9 90% 78 30.08 1018.7
22 21:56 S 5 10.00 Fair CLR 77 73.9 90% 78 30.06 1018.0
22 20:56 S 6 10.00 Fair CLR 79 73 82% 82 30.04 1017.3
22 19:56 S 9 10.00 Fair CLR 82 77 88 75.9 85% 90 30.02 1016.6 0.43
22 18:56 S 6 10.00 Fair CLR 82.9 77 82% 92 30 1015.7
22 17:56 S 6 10.00 Fair CLR 82 75 79% 89 29.99 1015.7 0.03
22 16:56 S 7 10.00 Fair CLR 80.1 73.9 82% 85 30.01 1016.2 0.23 0.4
22 15:56 SW 7 3.00 Thunderstorm Light Rain Fog/Mist FEW017 OVC030 75.9 73.9 94% 75 30.05 1017.7 0.17
22 14:56 SW 10 10.00 Mostly Cloudy SCT032 BKN080 BKN095 87.1 75 67% 97 30.02 1016.6
22 13:56 S 9 10.00 Mostly Cloudy BKN030 BKN038 BKN100 87.1 75 87.1 73 67% 97 30.05 1017.5
22 12:56 SW 7 10.00 Mostly Cloudy BKN022 BKN030 84.9 75 72% 93 30.07 1018.3
22 11:56 S 8 10.00 Partly Cloudy SCT015 82.9 75 77% 90 30.08 1018.8
Date Time (edt) Wind (mph) Vis. (mi.) Weather Sky Cond. Air Dwpt Max. Min. Relative Humidity Wind Chill (°F) Heat Index (°F) altimeter (in) sea level (mb) 1 hr 3 hr 6 hr
6 hour
Temperature (ºF) Pressure Precipitation (in)